Location: Avon School (historical)
(37.7514°N, 90.2201°W)
Time: 01:05:52
(UTC+00:00)

Explorer 7 - Pass Details

Date: 15 December 2025
Orbit: 433 x 550 km, 50.2° (Epoch: 13 January)

Event Time Altitude Azimuth Distance (km) Brightness Sun altitude
Rises 00:34:49 0° 289° (WNW) 2,450 11.1 -21.4°
Reaches altitude 10° 00:38:00 10° 320° (NW) 1,560 9.4 -22.0°
Enters shadow 00:39:15 13° 341° (NNW) 1,408 9.0 -22.2°
